Regional Weather Roundup
Issued by NWS

Home | Current Version | Previous Version | Graphics & Text | Print | Product List | Glossary On
Versions: 1 2 3 4 5 6 7 8 9 10 11 12 13 14 15 16 17 18 19 20 21 22 23 24 25 26 27 28 29 30 31 32 33 34 35 36 37 38 39 40 41 42 43 44 45 46 47 48 49 50
000
ASUS44 KMEG 161800
RWRTN
TENNESSEE HOURLY STATE WEATHER ROUNDUP
NATIONAL WEATHER SERVICE MEMPHIS TN
1200 PM CST TUE JAN 16 2018

TNZ002-004-019-021-049-052-054-088>092-161900-
WEST TENNESSEE

CITY           SKY/WX    TMP DP  RH WIND       PRES   REMARKS
MEMPHIS INTL   FAIR      15   3  59 NW14      30.67F WCI   0
NWS MEMPHIS      N/A     14 N/A N/A MISG        N/A
JACKSON        FAIR      13   5  70 NW9       30.65F WCI   1
DYERSBURG      FAIR      14   0  53 W9        30.69F WCI   2
$$

TNZ008-025-027-028-033-062-065-066-161900-
NORTH MIDDLE TENNESSEE

CITY           SKY/WX    TMP DP  RH WIND       PRES   REMARKS
NASHVILLE      SNOW      14   8  77 NW7       30.58F VSB 1/2 WCI   4
CLARKSVILLE    FAIR      10  -1  61 NW8       30.61F WCI  -2
SMYRNA         LGT SNOW  14   9  80 N9        30.58F WCI   2
CROSSVILLE     LGT SNOW  18  12  77 NW8       30.39F WCI   8
$$

TNZ061-075-076-078-094-096-097-161900-
SOUTH MIDDLE TENNESSEE

CITY           SKY/WX    TMP DP  RH WIND       PRES   REMARKS
WINCHESTER     CLOUDY    18  12  79 NW7       30.49F WCI   8
$$

TNZ017-018-042-046-047-161900-
NORTHEAST TENNESSEE

CITY           SKY/WX    TMP DP  RH WIND       PRES   REMARKS
TRI CITIES     CLOUDY    39  27  62 CALM      30.32F
$$

TNZ012-013-036-069-073-074-161900-
CENTRAL EAST TENNESSEE

CITY           SKY/WX    TMP DP  RH WIND       PRES   REMARKS
KNOXVILLE      CLOUDY    35  28  75 W13       30.37F WCI  26
OAK RIDGE      CLOUDY    31  23  72 NW5       30.40F WCI  26
$$

TNZ083-085-099-161900-
SOUTHEAST TENNESSEE

CITY           SKY/WX    TMP DP  RH WIND       PRES   REMARKS
CHATTANOOGA    LGT SNOW  35  25  66 W10       30.41F FOG     WCI  27
$$

SKY/WX REPORTED AS FAIR MEANS FEW OR NO CLOUDS BELOW
12 THOUSAND FEET.





USA.gov is the U.S. government's official web portal to all federal, state and local government web resources and services.